Weather Roundup
Issued by NWS

Home | Current Version | Previous Version | Text Only | Print | Product List | Glossary On
Versions: 1 2 3 4 5 6 7 8 9 10 11 12 13 14 15 16 17 18 19 20 21 22 23 24 25 26 27 28 29 30 31 32 33 34 35 36 37 38 39 40 41 42 43 44 45 46 47 48 49 50
232
NZUS93 KARX 270510
HRRWXR

CURRENT HOURLY OBSERVATIONS ACROSS
MUCH OF THE UPPER MISSISSIPPI VALLEY
NATIONAL WEATHER SERVICE LA CROSSE WI
1200 AM CDT MON MAR 27 2017


...SOUTHEAST MINNESOTA...


CITY           SKY/WX    TMP DP  RH WIND       PRES   REMARKS
ROCHESTER      CLOUDY    39  39 100 N3        29.92F FOG
ROCHESTER/MAYO CLOUDY    39  40 100 N3        29.92F
WINONA         CLOUDY    41  37  87 CALM      29.93F
AUSTIN         CLOUDY    39  37  93 CALM      29.93R FOG
ALBERT LEA     CLOUDY    39  39 100 NW3       29.93F FOG
DODGE CENTER   FOG       37  37 100 NW3       29.93S VSB 3/4
PRESTON        FOG       38  37  97 NW5       29.92S VSB 1/2 WCI  35
OWATONNA       CLOUDY    39  37  93 W3        29.94R FOG
FARIBAULT      CLOUDY    39  39 100 N3        29.94S FOG
$$

...ELSEWHERE IN MINNESOTA...


CITY           SKY/WX    TMP DP  RH WIND       PRES   REMARKS
MINNEAPOLIS    CLOUDY    39  35  86 N5        29.94F
INTNL FALLS    PTCLDY    32  27  81 CALM      29.92S
DULUTH         FOG       32  31  96 CALM      29.92S VSB 3/4
RED WING       CLOUDY    41  39  93 CALM      29.93S FOG
REDWOOD FALLS  CLOUDY    40  36  86 S3        29.96S
MANKATO        CLOUDY    38  37  97 CALM      29.96R
WORTHINGTON    CLOUDY    39  37  92 W5        29.96F
FAIRMONT       CLOUDY    40  37  89 NW5       29.96F
$$

...SOUTHWEST WISCONSIN...


CITY           SKY/WX    TMP DP  RH WIND       PRES   REMARKS
LA CROSSE      CLOUDY    42  40  92 CALM      29.92F
PRAIRIE DU CHI CLOUDY    42  39  90 NW5       29.92S
BOSCOBEL       CLOUDY    43  41  93 CALM      29.92S
LONE ROCK      CLOUDY    43  40  89 CALM      29.91F
PLATTEVILLE    CLOUDY    43  43 100 NW5       29.90F VSB 1/2
FORT MC COY    CLOUDY    39  39 100 CALM      29.92F FOG
CAMP DOUGLAS   CLOUDY    39  39 100 NW3       29.90F
MAUSTON-NEW LI CLOUDY    40  39  99 W3        29.90F FOG
VIROQUA        CLOUDY    39  39 100 NW5       29.90S VSB 1/4
WIS DELLS      CLOUDY    38  38  97 CALM      29.90F FOG
$$

...ELSEWHERE IN WISCONSIN...


CITY           SKY/WX    TMP DP  RH WIND       PRES   REMARKS
MILWAUKEE      FOG       43  40  89 CALM      29.88S VSB 3/4
MADISON        CLOUDY    41  39  93 CALM      29.90S
GREEN BAY      CLOUDY    37  37 100 CALM      29.89R
EAU CLAIRE     CLOUDY    40  39  97 N3        29.92S FOG
BLACK RVR FLS  CLOUDY    40  40 100 CALM      29.91F FOG
MEDFORD        CLOUDY    37  36  96 N3        29.88F
WAUSAU         CLOUDY    38  38 100 NW3       29.88R
WIS RAPIDS     LGT RAIN  39  39 100 NW5       29.91S FOG
MARSHFIELD     FOG       38  37  97 W3        29.88S VSB 1/4
RICE LAKE      CLOUDY    36  35  96 CALM      29.94R
$$

...NORTHEAST IOWA...


CITY           SKY/WX    TMP DP  RH WIND       PRES   REMARKS
WATERLOO       CLOUDY    43  41  93 CALM      29.92F
DUBUQUE        CLOUDY    43  43 100 NW6       29.91R FOG
DECORAH        CLOUDY    39  39 100 CALM      29.91S
MASON CITY     CLOUDY    40  39  97 NW6       29.95F FOG
CHARLES CITY   CLOUDY    41  41 100 NW6       29.93F
OELWEIN        CLOUDY    43  43 100 NW5       29.93S FOG
$$

...ELSEWHERE IN IOWA...


CITY           SKY/WX    TMP DP  RH WIND       PRES   REMARKS
DES MOINES     CLOUDY    46  44  93 N3        29.93F
IOWA CITY      CLOUDY    48  45  89 W6        29.93F
FORT DODGE     CLOUDY    41  37  87 N7        29.95F
MARSHALLTOWN   CLOUDY    44  44 100 N3        29.91F FOG
CEDAR RAPIDS   CLOUDY    45  45 100 NW6       29.91F
$$

...NORTHERN ILLINOIS...


CITY           SKY/WX    TMP DP  RH WIND       PRES   REMARKS
CHICAGO-OHARE  CLOUDY    52  49  89 W9        29.87F
CHICAGO-MIDWAY CLOUDY    52  50  93 W10       29.88F
MOLINE         CLOUDY    49  45  86 W6        29.92F
ROCKFORD       CLOUDY    49  47  93 NW9       29.91S FOG
PEORIA         CLOUDY    49  48  97 W6        29.94S
$$

NOTE: "FAIR" INDICATES FEW OR NO CLOUDS BELOW 12,000 FEET WITH NO
SIGNIFICANT WEATHER AND/OR OBSTRUCTIONS TO VISIBILITY. WIND
SPEEDS ARE IN MILES-PER-HOUR.




USA.gov is the U.S. government's official web portal to all federal, state and local government web resources and services.